Regional Weather Roundup
Issued by NWS

Home | Current Version | Previous Version | Text Only | Print | Product List | Glossary Off
Versions: 1 2 3 4 5 6 7 8 9 10 11 12 13 14 15 16 17 18 19 20 21 22 23 24 25 26 27

000
ASUS45 KBOU 272007
RWRCO

WEATHER ROUNDUP FOR COLORADO
NATIONAL WEATHER SERVICE DENVER/BOULDER CO
200 PM MDT WED APR 27 2016

NOTE: "FAIR" INDICATES FEW OR NO CLOUDS BELOW 12000 FEET WITH NO
SIGNIFICANT WEATHER AND/OR OBSTRUCTIONS TO VISIBILITY.

COZ001>005-013-030-031-272100-
...NORTHWEST COLORADO...

CITY           SKY/WX    TMP DP  RH WIND       PRES   REMARKS
CRAIG          PTSUNNY   49  30  48 NW10G21   29.83F
HAYDEN         PTSUNNY   43  30  61 N12       29.84F
MEEKER         FAIR      51  30  44 W7        29.83F
MOUNT WERNER   NOT AVBL
STEAMBOAT SPGS FAIR      43  32  63 SW12G17   29.84S
WALDEN         PTSUNNY   34  28  80 N7        29.86F WCI  28
$$

COZ006>008-011-272100-
...WEST CENTRAL VALLEYS...

CITY           SKY/WX    TMP DP  RH WIND       PRES   REMARKS
GRAND JUNCTION PTSUNNY   55  36  48 NW7       29.83F
MONTROSE       PTSUNNY   50  35  56 CALM      29.86F
EAGLE          PTSUNNY   52  27  37 W12       29.84F
RIFLE          CLOUDY    52  31  44 VRB5      29.83F
DELTA          NOT AVBL
NUCLA          NOT AVBL
$$

COZ017>023-064>068-272100-
...SOUTHWEST COLORADO...

CITY           SKY/WX    TMP DP  RH WIND       PRES   REMARKS
DURANGO        FAIR      57  26  30 SW17G25   29.83F
CORTEZ         PTSUNNY   57  30  35 VRB7      29.85F
PAGOSA SPRINGS CLOUDY    51  20  29 SW13      29.86F
TELLURIDE      CLOUDY    42  27  55 W7G17     29.92F
WOLF CREEK PAS NOT AVBL
$$

COZ009-010-012-014-032>034-037-058>063-272100-
...CENTRAL COLORADO...

CITY           SKY/WX    TMP DP  RH WIND       PRES   REMARKS
ASPEN          PTSUNNY   45  28  51 N8        29.86F
BUENA VISTA    CLOUDY    53  17  24 SW8G22    29.80F
COPPER MTN     NOT AVBL
BERTHOUD PASS  CLOUDY    19   9  63 NW36G46   29.85R WCI  -1
COTTONWOOD PAS CLOUDY    45  14  29 SW5       29.87R
GUNNISON       PTSUNNY   50  21  32 W12G20    29.87S
KREMMLING      CLOUDY    45  27  49 N8        29.86S
LEADVILLE      PTSUNNY   37  19  48 NW13      29.86F
MONARCH PASS   PTSUNNY   27  21  80 W30G36    30.02R WCI  10
SALIDA         FAIR      56  18  22 W16G26    29.88S
SUNLIGHT       CLOUDY    32  32 100 CALM      29.96F
WILKERSON PASS PTSUNNY   36  14  41 W5        29.91S
$$

COZ069>075-272100-
...SAN LUIS VALLEY/SANGRE DE CRISTO MOUNTAINS...

CITY           SKY/WX    TMP DP  RH WIND       PRES   REMARKS
ALAMOSA        CLOUDY    56  17  21 NW9       29.81F
LA VETA PASS   FAIR      43  18  36 SW8G16    29.90R
SAGUACHE       FAIR      50  18  27 NW20G28   29.83F
$$

COZ035-036-038>040-272100-
...NORTHERN COLORADO FRONT RANGE...

CITY           SKY/WX    TMP DP  RH WIND       PRES   REMARKS
DENVER INTL AP PTSUNNY   49  28  44 NE13      29.80S
DMNS CITY PARK   N/A     51  31  45 E12G24    29.79F
AURORA         FAIR      51  30  44 N8        29.81S
FRONT RANGE AP PTSUNNY   48  28  46 N14G23    29.81S
ERIE MUNI ARPT FAIR      51  30  44 CALM      29.80S
BOULDER MUN AP PTSUNNY   52  32  46 E7        29.79S
CENTENNIAL     FAIR      49  28  44 CALM      29.79F
BROOMFIELD     PTSUNNY   48  30  49 CALM      29.80F
FORT COLLINS   PTSUNNY   48  30  49 CALM      29.81S
LONGMONT       PTSUNNY   52  31  43 CALM      29.81S
$$

COZ041-046-047-076>085-087-088-272100-
...PIKES PEAK/PALMER DIVIDE AND SOUTHERN FOOTHILLS...

CITY           SKY/WX    TMP DP  RH WIND       PRES   REMARKS
COLO. SPRINGS  PTSUNNY   53  26  35 S9        29.80S
A. F. ACADEMY  PTSUNNY   50  28  43 SW9       29.79R
SCHRIEVER AFB  NOT AVBL
ELLICOTT       NOT AVBL
FALCON         CLOUDY    47  26  43 SE9       29.82R
FORT CARSON    NOT AVBL
LIMON          FAIR      52  28  39 N20G36    29.79S
MONUMENT HILL  FAIR      43  30  61 NE5       29.82S
TRINIDAD       FAIR      61  27  27 SE13      29.76S
$$

COZ042>045-048>051-090-091-272100-
...NORTHEAST COLORADO...

CITY           SKY/WX    TMP DP  RH WIND       PRES   REMARKS
GREELEY ARPT   CLOUDY    48  30  49 N22       29.79S
AKRON          FAIR      52  26  36 N33G44    29.77R
BURLINGTON     FAIR      56  29  35 N23G37    29.74F
WRAY           NOT AVBL
STERLING       FAIR      52  30  43 N26G36    29.76F
HOLYOKE        NOT AVBL
FORT MORGAN    FAIR      54  24  31 NW28G38   29.78F
$$

COZ086-089-092>099-272100-
...SOUTHEAST COLORADO...

CITY           SKY/WX    TMP DP  RH WIND       PRES   REMARKS
PUEBLO         FAIR      61  28  28 SE16      29.76F
LA JUNTA       FAIR      61  26  26 N9        29.77F
LAMAR          FAIR      63  27  25 NW14G22   29.75F
SPRINGFIELD      N/A     59  29  31 N13       29.79F
$$




USA.gov is the U.S. government's official web portal to all federal, state and local government web resources and services.